Home   Weather   Glendale   Past weeks

Flag for USA Past Weather in Glendale, Arizona, USA — Yesterday and Last 2 Weeks

Now
51 °F

Passing clouds.


Feels Like: 51 °F
Forecast: 49 / 63 °F
Wind: No wind

Location: Phoenix-Deer Valley Municipal Airport

Current Time: Dec 7, 2016 at 3:58:02 am

Latest Report: Dec 7, 2016 at 2:53 am


Visibility: 10 mi

Pressure: 29.90 "Hg

Humidity: 74%

Dew Point: 43 °F

Location of GlendaleLocation

Past Weather in Glendale — Graph

°F

Glendale Temperature Yesterday

Maximum temperature yesterday: 61 °F (at 1:53 pm)
Minimum temperature yesterday: 47 °F (at 1:53 am)
Average temperature yesterday: 54 °F

High & Low Weather Summary for the Past Weeks

 TemperatureHumidityPressure
High78 °F (Nov 25, 2:53 pm)93% (Nov 28, 1:53 am)30.16 "Hg (Nov 28, 1:53 am)
Low39 °F (Dec 1, 1:53 am)9% (Nov 24, 1:53 pm)29.76 "Hg (Nov 28, 2:53 pm)
Average55 °F41%29.95 "Hg
* Reported Nov 22 1:53 am — Dec 7 1:53 am, Glendale, Weather by CustomWeather, © 2016

Note: Actual official high and low records may vary slightly from our data, if they occured in-between our weather recording intervals... More about our weather records

Advertising

Glendale Weather History for the Previous 24 Hours

Scroll right to see more
 ConditionsComfort  
Time TempWeatherWind HumidityBarometerVisibility
1:53 am
Wed, Dec 7
51 °FPassing clouds.No wind74%29.89 "Hg10 mi
12:53 am50 °FClear.5 mph77%29.88 "Hg10 mi
11:53 pm
Tue, Dec 6
50 °FPassing clouds.No wind77%29.89 "Hg10 mi
10:53 pm52 °FPassing clouds.No wind75%29.89 "Hg10 mi
9:53 pm52 °FPassing clouds.3 mph75%29.88 "Hg10 mi
8:53 pm53 °FClear.No wind72%29.86 "Hg10 mi
7:53 pm55 °FClear.3 mph67%29.86 "Hg10 mi
6:53 pm56 °FClear.6 mph67%29.85 "Hg10 mi
5:53 pm59 °FClear.No wind60%29.84 "Hg10 mi
4:53 pm60 °FSunny.5 mph58%29.83 "Hg10 mi
3:53 pm61 °FSunny.8 mph60%29.84 "Hg10 mi
2:53 pm60 °FScattered clouds.3 mph58%29.84 "Hg10 mi
1:53 pm61 °FPartly sunny.7 mph52%29.85 "Hg10 mi
12:53 pm60 °FOvercast.5 mph32%29.86 "Hg10 mi
11:53 am58 °FPartly sunny.No wind30%29.90 "Hg10 mi
10:53 am58 °FPartly sunny.7 mph28%29.93 "Hg10 mi
9:53 am55 °FSunny.8 mph30%29.92 "Hg10 mi
8:53 am50 °FSunny.6 mph36%29.91 "Hg10 mi
7:53 am48 °FSunny.No wind39%29.90 "Hg10 mi
6:53 am51 °FClear.5 mph31%29.88 "Hg10 mi
5:53 am49 °FClear.6 mph35%29.87 "Hg10 mi
4:53 am51 °FClear.6 mph31%29.87 "Hg10 mi
3:53 am51 °FClear.3 mph32%29.87 "Hg10 mi
Weather by CustomWeather, © 2016

See weather overviewHow to use our weather pages